Workout of the Day

« September 7, 2022 »

4 x 6 minutes with rate changes. 2 minutes rest between intervals.

4 x 6 minutes of work with two minutes rest between intervals. Each 6 minute interval is split into 3 minutes then 2 minutes then 1 minute at different stroke rates or cadence. RowErg: 3 minutes at 22, 2 minutes at 24, 1 minute at 28. SkiErg: 3 minutes at 33, 2 minutes at 36, 1 minute at 42. BikeErg: 3 minutes at 78, 2 minutes at 82, 1 minute at 90.

Pos. Name Age Country Result Pace
1601 Marco Coleman 44 USA 3,940 3:02.7
1601 Christian Jimenez 45 GUA 3,940 3:02.7
1603 Bruce Dammeier 61 USA 3,931 3:03.1
1604 Layla Swift 46 USA 3,922 3:03.5
1605 Keith Oak 60 GBR 3,920 3:03.6
1606 Ashley Autrey 37 USA 3,918 3:03.7
1607 Bob Evoy 43 CAN 3,916 3:03.8
1608 Stephen Jabaut 72 USA 3,913 3:04.0
1609 Adam Feldman 39 ISR 3,904 3:04.4
1610 Sigurd Belbo 13 NOR 3,900 3:04.6
1611 Adrianno Copetti 45 CAN 3,898 3:04.7
1612 Phil Steele 68 USA 3,897 3:04.7
1613 James Mangels 54 USA 3,896 3:04.8
1614 Donna Rice 71 USA 3,893 3:04.9
1615 Niall Malone 51 GBR 3,872 3:05.9
1615 Patrick Matz 38 GER 3,872 3:05.9
1617 Hillary Bergmann - USA 3,867 3:06.1
1618 Rosa Poetschke 44 USA 3,864 3:06.3
1619 Richard Herrera 63 USA 3,860 3:06.5
1620 Andrew Whyatt 56 GBR 3,852 3:06.9
1621 아름 박 37 KOR 3,846 3:07.2
1622 Nancy Regis 66 USA 3,840 3:07.5
1623 Manus Willem Sipkes 76 NED 3,839 3:07.5
1623 Steven Kaplan 69 USA 3,839 3:07.5
1625 CBDB CBDB 56 GBR 3,835 3:07.7
1626 Chris Romero 41 USA 3,827 3:08.1
1627 Stuart McWilliam 55 GBR 3,825 3:08.2
1628 Mauro Sánchez 21 ESP 3,812 3:08.8
1629 Laurie Sutherland 55 CAN 3,808 3:09.0
1630 Kim Armstrong 54 USA 3,807 3:09.1
1631 Adam Ward 38 USA 3,804 3:09.2
1632 Fanny DEL 31 FRA 3,799 3:09.5
1633 Virginia Skiba 43 USA 3,793 3:09.8
1634 Michael Parr 35 GBR 3,790 3:09.9
1635 Gary Martin 62 GBR 3,787 3:10.1
1636 Katie McCullough 55 USA 3,784 3:10.2
1637 Scott Hagan 60 USA 3,777 3:10.6
1638 Vasudha Sharma 22 IND 3,768 3:11.0
1639 Joanne Crowther 64 AUS 3,747 3:12.1
1640 Hiroaki Fukushima 55 JPN 3,746 3:12.2
1641 Elisa Lindgren 29 SWE 3,733 3:12.8
1642 ELISA LOPEZ 39 MEX 3,726 3:13.2
1642 M-J M 39 NOR 3,726 3:13.2
1644 Peter Allen 68 GBR 3,717 3:13.7
1645 Veronica R 47 USA 3,706 3:14.2
1646 Mitzi Connell 54 USA 3,701 3:14.5
1647 Erica B - USA 3,699 3:14.6
1648 Kara Newtown 33 USA 3,673 3:16.0
1649 Yangjiao Liao 35 NOR 3,671 3:16.1
1650 Deb Tull 69 USA 3,670 3:16.1